Zurück zum Katalog

DELTA 1 DEB

AktivSSO
NORAD 17764·DEBRIS·🇺🇸 United States

Gestartet Mar 5, 1978 von Vandenberg Space Force Base

Loading…

Nächste Überflüge (nächste 24 Stunden)

TLE

AktuellSource: Space-Track

Epoche: Sep 13, 2026, 07:45 UTC

1 17764U 78026GW  26256.32336897  .00000109  00000-0  83518-4 0  9999
2 17764  98.9894 291.4364 0046088 329.8911  88.5987 14.12155926132526

Verfolge DELTA 1 DEB in Echtzeit mit AllMySat

Download on the App Store